[[{"header":{"parameterUnit":"m.s-1","parameterCategory":1,"la1":30.2991,"la2":30.254,"lo1":-89.0895,"lo2":-89.0444,"dy":0.0017,"dx":0.0017,"nx":28,"ny":28,"refTime":"2025-05-31T21:00:00:Z","depth":0,"parameterNumber":2,"parameterNumberName":"U-component_of_WINDS"},"data":[0,0,0,0,0,0,0,0,0,0,0,0,0,0,0,0,0,0,0,0,0,0,0,0,0,0,0,0,0,0,0,0,0,0,0,0,0,0,0,0,0,0,0,0,0,0,0,0,0,0,0,0,0,0,0,0,0,0,-3.8985,-3.8984,0,-3.8933,-3.8933,-3.8932,-3.8827,-3.8825,-3.8823,-3.8821,-3.8769,-3.877,-3.877,0,0,0,0,0,0,0,0,0,0,0,0,0,-3.8996,-3.8996,-3.8985,-3.8984,-3.8984,-3.8933,-3.8932,-3.8932,-3.8827,-3.8825,-3.8822,-3.882,-3.8769,-3.8769,-3.877,0,0,0,0,0,0,0,0,0,0,0,0,0,-3.8972,-3.8996,-3.8985,-3.8925,-3.8919,-3.8933,-3.8932,-3.8932,-3.8828,-3.8825,-3.8821,-3.8818,-3.8769,-3.8769,-3.877,-3.8838,0,0,-3.8773,-3.8773,0,0,0,0,0,0,0,0,-3.8974,-3.8972,-3.8935,-3.8929,-3.8923,-3.8883,-3.8917,-3.89,-3.8829,-3.8863,-3.8821,-3.8817,-3.881,-3.8807,-3.8804,-3.8836,-3.8834,-3.8773,-3.8773,-3.8774,-3.8774,0,0,0,0,0,0,0,-3.8976,-3.8974,-3.8964,-3.8934,-3.8927,-3.8902,-3.8895,-3.8914,-3.8854,-3.8859,-3.8852,-3.8847,-3.8806,-3.8804,-3.8802,-3.8833,-3.8773,-3.8774,-3.8774,-3.8775,-3.892,-3.8923,0,0,0,0,0,0,-3.8986,-3.8976,-3.8966,-3.8963,-3.8941,-3.8904,-3.8897,-3.8899,-3.8854,-3.8844,-3.885,-3.8842,-3.8804,-3.8801,-3.88,-3.8877,-3.8774,-3.8775,-3.8775,-3.8917,-3.8921,-3.8924,0,0,0,0,0,0,-3.8986,-3.8986,-3.8968,-3.8967,-3.8963,-3.8908,-3.8911,-3.89,-3.8897,-3.8846,-3.8836,-3.8858,-3.8801,-3.8799,-3.883,-3.8874,-3.8775,-3.8776,-3.8913,-3.8918,-3.8923,-3.9032,0,0,0,0,0,0,-3.8987,-3.8987,-3.9011,-3.8969,-3.8964,-3.8998,-3.8914,-3.8901,-3.8899,-3.8889,-3.8851,-3.8842,-3.8798,-3.8829,-3.8831,-3.8873,-3.8777,-3.8909,-3.8915,-3.8921,-3.9024,-3.904,-3.9054,0,0,0,0,0,-3.8988,-3.9044,-3.9013,-3.9012,-3.8993,-3.9001,-3.8998,-3.8946,-3.8903,-3.8927,-3.8895,-3.8843,-3.8869,-3.8833,-3.8834,-3.8877,-3.8905,-3.8913,-3.8921,-3.9017,-3.9037,-3.9053,0,0,0,0,0,0,-3.9093,-3.9037,-3.9002,-3.9046,-3.9029,-3.8983,-3.9012,-3.8968,-3.8963,-3.8954,-3.889,-3.8883,-3.8923,-3.8903,-3.8864,-3.8942,-3.8879,-3.8887,-3.8953,-3.8971,-3.8985,-3.8988,-3.8777,0,0,0,0,0,-3.9121,-3.9132,-3.9083,-3.9126,-3.912,-3.9068,-3.907,-3.9031,-3.9011,-3.9004,-3.8973,-3.8957,-3.8961,-3.8965,-3.8966,-3.9022,-3.9012,-3.9052,-3.9067,-3.9079,-3.9087,-3.9115,-3.9133,-3.8949,-3.8949,-3.8949,0,0,-3.9179,-3.915,-3.9161,-3.9147,-3.9129,-3.9142,-3.9063,-3.908,-3.9089,-3.9006,-3.9033,-3.9012,-3.8989,-3.9033,-3.9051,-3.9018,-3.9136,-3.9089,-3.9099,-3.9099,-3.9125,-3.9142,-3.9158,-3.8954,-3.8953,-3.8952,0,0,-3.9292,-3.9271,-3.9305,-3.929,-3.9264,-3.923,-3.9239,-3.92,-3.9182,-3.9209,-3.9148,-3.9159,-3.9168,-3.9154,-3.9148,-3.926,-3.9212,-3.9262,-3.9339,-3.9367,-3.9382,-3.9394,-3.9434,-3.9449,-3.927,-3.927,-3.927,0,-3.9367,-3.9384,-3.9328,-3.935,-3.9346,-3.9273,-3.9307,-3.9295,-3.9272,-3.9271,-3.9235,-3.9246,-3.9225,-3.9265,-3.9293,-3.9291,-3.9299,-3.9265,-3.9384,-3.9396,-3.9407,-3.9444,-3.9459,-3.9276,-3.9276,-3.9275,-3.9274,0,-3.9478,-3.9491,-3.9522,-3.9501,-3.9501,-3.9529,-3.9479,-3.9486,-3.9449,-3.9419,-3.9448,-3.9422,-3.9417,-3.9424,-3.9388,-3.946,-3.944,-3.9396,-3.9331,-3.9432,-3.9465,-3.9479,-3.9285,-3.9283,-3.9281,-3.928,0,0,-3.9652,-3.9602,-3.9614,-3.9605,-3.9573,-3.9582,-3.9609,-3.9603,-3.9611,-3.9599,-3.9619,-3.9629,-3.9588,-3.9582,-3.9544,-3.957,-3.966,-3.9522,-3.952,-3.9548,-3.9738,-3.9771,-3.9788,-3.9629,-3.9632,-3.9634,-3.974,0,-3.9756,-3.9796,-3.9748,-3.9799,-3.9811,-3.9743,-3.9766,-3.975,-3.9724,-3.9731,-3.9702,-3.971,-3.9656,-3.9652,-3.9674,-3.9644,-3.9697,-3.9636,-3.9648,-3.9649,-3.9654,-3.9806,-3.984,-3.9941,-3.9753,-3.9755,-3.9757,0,-3.9882,-3.9876,-3.9928,-3.9894,-3.9897,-3.9919,-3.9911,-3.9919,-3.99,-3.9879,-3.9874,-3.9829,-3.9854,-3.9793,-3.9826,-3.9786,-3.9788,-3.9775,-3.9778,-3.9775,-3.9707,-3.9807,-3.9972,-3.9987,-3.9777,-3.9775,-3.9774,0,-4.0003,-4.0008,-4.0039,-4.0034,-3.9996,-4.0012,-3.9997,-3.9975,-3.9976,-3.9971,-3.9971,-3.9969,-3.9967,-3.9967,-3.9923,-3.9883,-3.9962,-3.9897,-3.9946,-3.9947,-3.9963,-3.9963,-4.0131,-3.9968,-3.9968,-3.9968,-3.9967,0,-4.0123,-4.0157,-4.0093,-4.0113,-4.015,-4.0096,-4.0135,-4.0113,-4.0095,-4.011,-4.0053,-4.0068,-4.001,-4.002,-3.9986,-4.0019,-4.0019,-4.0004,-3.9994,-4.0008,-4.001,-4.0007,-3.9998,-3.9972,-3.9971,-3.997,-3.9969,0,-4.0263,-4.0221,-4.0252,-4.0214,-4.0206,-4.0235,-4.0203,-4.022,-4.0192,-4.0211,-4.0213,-4.0168,-4.0177,-4.0134,-4.0135,-4.0113,-4.0162,-4.0142,-4.0169,-4.0162,-4.0212,-4.0208,-4.0383,-4.0403,-4.0229,-4.0231,-4.0232,0,-4.0341,-4.0366,-4.0332,-4.0338,-4.0326,-4.0336,-4.0337,-4.0286,-4.029,-4.0272,-4.0292,-4.0296,-4.0296,-4.0314,-4.0282,-4.0283,-4.0261,-4.0323,-4.0261,-4.0274,-4.0261,-4.026,-4.0262,-4.0335,-4.0337,-4.0339,-4.034,0,-4.0485,-4.0464,-4.0467,-4.0464,-4.0467,-4.0462,-4.0453,-4.0462,-4.0407,-4.0415,-4.0423,-4.0424,-4.0426,-4.0431,-4.0426,-4.0411,-4.0368,-4.0361,-4.0372,-4.0385,-4.0399,-4.0392,-4.0202,-4.0356,-4.0354,-4.0353,-4.0352,-4.0352,-4.0595,-4.0615,-4.0594,-4.06,-4.0589,-4.0583,-4.0597,-4.0571,-4.0577,-4.0574,-4.0545,-4.056,-4.0543,-4.0531,-4.0522,-4.0533,-4.0504,-4.052,-4.0524,-4.0528,-4.0537,-4.04,-4.0532,-4.0532,-4.0531,-4.0531,-4.0531,0,-4.0735,-4.0719,-4.0725,-4.0716,-4.0721,-4.068,-4.0669,-4.0677,-4.069,-4.0678,-4.068,-4.0691,-4.0696,-4.0666,-4.0668,-4.0683,-4.0662,-4.0685,-4.0682,-4.068,-4.0563,-4.0553,-4.0701,-4.0701,-4.0701,-4.0701,-4.0701,-4.0701,-4.0808,-4.0839,-4.0816,-4.0842,-4.0826,-4.0839,-4.0837,-4.0831,-4.0821,-4.0836,-4.084,-4.0821,-4.0802,-4.0802,-4.0806,-4.0797,-4.08,-4.0829,-4.0813,-4.0704,-4.0688,-4.0672,-4.0662,-4.083,-4.083,-4.0928,-4.0929,-4.093]},{"header":{"parameterUnit":"m.s-1","parameterCategory":1,"la1":30.2991,"la2":30.254,"lo1":-89.0895,"lo2":-89.0444,"dy":0.0017,"dx":0.0017,"nx":28,"ny":28,"refTime":"2025-05-31T21:00:00:Z","depth":0,"parameterNumber":3,"parameterNumberName":"V-component_of_WINDS"},"data":[0,0,0,0,0,0,0,0,0,0,0,0,0,0,0,0,0,0,0,0,0,0,0,0,0,0,0,0,0,0,0,0,0,0,0,0,0,0,0,0,0,0,0,0,0,0,0,0,0,0,0,0,0,0,0,0,0,0,2.4199,2.4199,0,2.4202,2.4202,2.4202,2.4258,2.4259,2.4261,2.4262,2.426,2.4258,2.4257,0,0,0,0,0,0,0,0,0,0,0,0,0,2.4238,2.4237,2.4199,2.4199,2.4199,2.4202,2.4202,2.4202,2.4257,2.4259,2.4261,2.4263,2.426,2.4258,2.4257,0,0,0,0,0,0,0,0,0,0,0,0,0,2.4228,2.4236,2.4199,2.4227,2.423,2.4202,2.4202,2.4202,2.4257,2.4259,2.4261,2.4263,2.4261,2.4259,2.4257,2.42,0,0,2.425,2.4249,0,0,0,0,0,0,0,0,2.4229,2.4227,2.4223,2.4225,2.4228,2.4232,2.4215,2.4201,2.4257,2.4246,2.4262,2.4265,2.4248,2.4247,2.4243,2.42,2.42,2.425,2.4249,2.4248,2.4247,0,0,0,0,0,0,0,2.4229,2.4227,2.42,2.4223,2.4226,2.4238,2.424,2.4212,2.4235,2.4248,2.4252,2.4252,2.425,2.4245,2.4243,2.42,2.425,2.4248,2.4247,2.4246,2.4111,2.4109,0,0,0,0,0,0,2.4227,2.4227,2.42,2.42,2.4234,2.4236,2.4237,2.4228,2.4236,2.4239,2.425,2.4254,2.4247,2.4246,2.4243,2.4178,2.4248,2.4246,2.4245,2.4113,2.4111,2.4108,0,0,0,0,0,0,2.4227,2.4224,2.42,2.4215,2.4213,2.4233,2.4222,2.4227,2.4222,2.4237,2.4241,2.424,2.4249,2.4246,2.4211,2.4178,2.4245,2.4243,2.4116,2.4113,2.4109,2.4046,0,0,0,0,0,0,2.4228,2.4224,2.4203,2.4214,2.4212,2.4168,2.4221,2.4226,2.4219,2.4225,2.423,2.4232,2.4251,2.4214,2.4209,2.4177,2.4241,2.4119,2.4115,2.4111,2.4051,2.4041,2.4032,0,0,0,0,0,2.4229,2.4184,2.4202,2.4198,2.4187,2.4166,2.4165,2.4188,2.4216,2.4195,2.4205,2.4232,2.4183,2.421,2.4205,2.4171,2.4121,2.4116,2.4111,2.4055,2.4043,2.4032,0,0,0,0,0,0,2.4167,2.4186,2.4206,2.4163,2.4163,2.4176,2.415,2.4174,2.4164,2.417,2.4198,2.4198,2.4158,2.4162,2.4191,2.4117,2.4157,2.4151,2.4117,2.4105,2.4095,2.4095,2.4239,0,0,0,0,0,2.4148,2.4131,2.4148,2.4109,2.4108,2.4129,2.4121,2.4139,2.4139,2.4139,2.4146,2.4144,2.4128,2.4117,2.4103,2.4052,2.4054,2.4027,2.4018,2.401,2.4003,2.3977,2.3965,2.4091,2.4091,2.4091,0,0,2.4109,2.4117,2.4104,2.4096,2.4098,2.4079,2.4128,2.4105,2.4091,2.4135,2.4102,2.4107,2.4107,2.4064,2.4045,2.4065,2.3969,2.4003,2.3997,2.3995,2.397,2.3958,2.3947,2.4088,2.4088,2.4089,0,0,2.4027,2.4033,2.4,2.4002,2.4005,2.402,2.4012,2.4022,2.4028,2.3996,2.4029,2.4011,2.3984,2.3982,2.3977,2.3897,2.3922,2.3892,2.3842,2.3815,2.3805,2.3797,2.3767,2.3757,2.3886,2.3886,2.3886,0,2.3977,2.3951,2.398,2.3956,2.3951,2.3992,2.3959,2.3959,2.3956,2.3951,2.3975,2.3942,2.3944,2.3901,2.3882,2.3877,2.3868,2.3891,2.3805,2.3796,2.3789,2.3761,2.375,2.3882,2.3883,2.3883,2.3883,0,2.389,2.3871,2.3844,2.3843,2.3836,2.3807,2.383,2.3819,2.3838,2.385,2.3817,2.3822,2.381,2.3802,2.3819,2.3761,2.3773,2.38,2.384,2.3772,2.3747,2.3737,2.3877,2.3878,2.3879,2.388,0,0,2.3766,2.3784,2.3773,2.3774,2.3781,2.3766,2.374,2.373,2.3719,2.3717,2.3694,2.3671,2.3697,2.3691,2.371,2.3687,2.3622,2.3717,2.3717,2.3698,2.3558,2.3537,2.3524,2.364,2.3638,2.3636,2.3558,0,2.3687,2.3644,2.367,2.3621,2.3604,2.3644,2.3621,2.3622,2.3633,2.3619,2.363,2.3613,2.3648,2.3645,2.3625,2.3635,2.3594,2.3641,2.3617,2.3616,2.3615,2.3511,2.3488,2.3413,2.3548,2.3546,2.3545,0,2.3589,2.3584,2.3535,2.3547,2.3541,2.3519,2.3513,2.3499,2.3502,2.3511,2.3506,2.3531,2.3504,2.3545,2.3508,2.3539,2.3531,2.3535,2.3533,2.353,2.3575,2.3504,2.339,2.3379,2.353,2.3531,2.3532,0,2.3503,2.3485,2.3453,2.3452,2.3465,2.3449,2.3454,2.3459,2.3451,2.3446,2.3441,2.3432,2.3426,2.3418,2.3438,2.3467,2.3398,2.3441,2.3404,2.3403,2.3386,2.3387,2.3268,2.3383,2.3383,2.3384,2.3384,0,2.3412,2.3379,2.3415,2.3395,2.336,2.339,2.3355,2.3363,2.3367,2.3349,2.3383,2.3365,2.3394,2.3378,2.3394,2.3361,2.3358,2.3364,2.3369,2.3361,2.336,2.3354,2.336,2.3381,2.3381,2.3382,2.3382,0,2.3309,2.3332,2.33,2.3316,2.3319,2.3293,2.3306,2.3287,2.3301,2.3278,2.3274,2.3295,2.3279,2.3299,2.3284,2.3295,2.3249,2.3262,2.3249,2.3252,2.3213,2.3216,2.3086,2.3071,2.3196,2.3195,2.3194,0,2.3249,2.3225,2.3239,2.3231,2.3234,2.3219,2.3212,2.3241,2.3233,2.3235,2.3216,2.3203,2.3194,2.3166,2.3179,2.3167,2.3179,2.3135,2.3177,2.317,2.3177,2.3178,2.3176,2.3125,2.3124,2.3122,2.3121,0,2.3138,2.3151,2.3142,2.3136,2.3128,2.3124,2.3123,2.3114,2.3144,2.3133,2.3117,2.3111,2.3097,2.3083,2.3075,2.3079,2.3104,2.3108,2.3099,2.3089,2.3083,2.3085,2.3224,2.311,2.3112,2.3112,2.3113,2.3113,2.3054,2.3036,2.3043,2.3031,2.3034,2.3033,2.3017,2.3029,2.3018,2.301,2.3027,2.3007,2.3011,2.3004,2.3005,2.2989,2.3008,2.2994,2.2991,2.2987,2.298,2.3086,2.2987,2.2988,2.2988,2.2988,2.2989,0,2.2945,2.2953,2.2942,2.294,2.2931,2.2959,2.2959,2.2949,2.2932,2.2934,2.2925,2.2907,2.2894,2.2907,2.2897,2.2881,2.2893,2.2877,2.2878,2.2878,2.2964,2.2973,2.2868,2.2868,2.2868,2.2868,2.2868,2.2869,2.2888,2.2857,2.2871,2.2842,2.285,2.2832,2.283,2.2828,2.283,2.281,2.28,2.2809,2.2815,2.2806,2.2795,2.2799,2.2793,2.2773,2.2781,2.2861,2.2872,2.2883,2.2892,2.2772,2.2772,2.2696,2.2696,2.2695]}]]